Location: Lane
(33.5226°N, 79.8788°W)
Time: 11:09:30
(UTC+00:00)

Explorer 7 - Pass Details

Date: 07 October 2022
Orbit: 481 x 665 km, 50.3° (Epoch: 26 November)

Event Time Altitude Azimuth Distance (km) Brightness Sun altitude
Rises 13:02:18 0° 216° (SW) 2,925 10.4 20.2°
Reaches altitude 10° 13:04:37 10° 213° (SSW) 2,039 9.7 20.6°
Maximum altitude 13:09:15 58° 134° (SE) 769 8.5 21.5°
Drops below altitude 10° 13:14:01 10° 56° (NE) 2,088 10.3 22.4°
Sets 13:16:24 0° 53° (NE) 3,001 11.0 22.9°
